Date,TemperatureHighF,TemperatureAvgF,TemperatureLowF,DewpointHighF,DewpointAvgF,DewpointLowF,HumidityHigh,HumidityAvg,HumidityLow,PressureMaxIn,PressureMinIn,WindSpeedMaxMPH,WindSpeedAvgMPH,GustSpeedMaxMPH,PrecipitationSumIn
2013-3-13,86.4,66.8,59.9,53.2,39.5,-99.9,76,46,25,30.14,30.00,5,-71,7,0.00
2013-3-14,87.1,68.7,53.1,55.9,50.8,46.4,81,56,28,30.11,30.01,7,1,8,0.00
2013-3-15,77.4,64.5,51.3,57.6,54.3,49.3,95,72,43,30.07,29.96,11,1,13,0.00
2013-3-16,79.2,63.6,48.7,55.6,50.7,41.9,96,67,37,30.05,29.93,10,2,13,0.00
2013-3-17,74.5,60.4,46.0,49.3,43.8,37.0,84,56,33,30.08,29.96,12,2,13,0.00
2013-3-18,71.8,56.7,42.4,47.8,39.9,-99.9,93,59,33,30.10,29.98,7,-17,10,0.00
2013-3-19,80.1,63.2,46.9,48.4,44.8,38.1,87,55,25,30.12,30.01,17,2,21,0.00
2013-3-20,70.5,61.6,53.1,52.3,50.0,46.4,85,67,47,30.12,30.01,11,2,15,0.00
2013-3-21,68.7,57.3,48.4,52.0,48.4,42.4,96,74,51,30.04,29.91,8,1,10,0.00
2013-3-22,70.2,54.6,40.6,43.5,38.1,26.2,91,58,31,30.04,29.94,13,2,13,0.00
2013-3-23,70.9,54.6,39.7,39.9,34.7,28.4,78,50,25,30.13,30.00,11,2,13,0.00
2013-3-24,77.4,59.7,45.0,43.5,39.9,37.0,75,51,26,30.09,29.92,9,1,10,0.00
2013-3-25,77.7,62.3,45.1,47.1,43.6,39.9,84,53,29,29.98,29.86,8,2,9,0.00
2013-3-26,78.6,62.0,46.6,49.6,44.9,41.2,87,57,30,29.95,29.85,8,1,12,0.00
2013-3-27,78.6,62.9,48.7,50.4,46.7,43.5,85,58,31,29.98,29.88,9,2,9,0.00
2013-3-28,73.4,61.6,49.5,54.9,51.3,46.4,89,70,47,30.07,29.98,10,1,11,0.00
2013-3-29,84.0,66.0,48.2,54.1,48.8,43.0,88,58,26,30.09,29.95,7,1,9,0.00
2013-3-30,86.7,68.3,52.2,52.0,48.6,45.1,82,53,25,30.03,29.88,10,2,18,0.00
2013-3-31,76.6,64.2,55.0,56.3,51.6,44.8,94,67,38,30.08,29.95,12,3,16,0.24
2013-4-1,74.7,61.8,51.3,51.6,47.9,42.4,88,63,32,30.14,30.03,9,2,10,0.00
2013-4-2,76.5,60.3,46.0,53.2,48.7,44.4,96,69,36,30.15,30.02,11,2,12,0.00
2013-4-3,82.9,64.8,48.9,54.7,50.4,45.9,90,63,31,30.11,29.93,8,1,9,0.00
2013-4-4,76.5,64.4,55.0,57.9,53.3,48.2,85,68,48,30.12,29.96,9,2,10,0.00
2013-4-5,71.8,61.8,54.7,55.2,52.4,48.2,92,73,48,30.14,30.02,9,2,11,0.00
2013-4-6,77.4,60.9,45.5,52.7,48.8,43.2,97,68,35,30.17,30.03,9,2,12,0.00
2013-4-7,78.4,62.9,48.4,54.1,49.6,44.4,96,66,33,30.10,29.82,10,2,15,0.00
2013-4-8,61.9,54.8,47.7,48.9,43.9,38.1,85,67,50,29.86,29.72,12,2,18,0.00
2013-4-9,73.0,56.8,41.2,43.9,39.8,33.4,90,58,25,30.05,29.86,12,2,13,0.00
2013-4-10,81.0,64.6,48.0,45.3,40.2,34.0,71,45,19,30.15,29.99,9,2,10,0.00
2013-4-11,81.9,67.5,54.7,52.5,47.1,42.1,74,50,30,30.01,29.74,14,2,14,0.00
2013-4-12,85.6,66.9,50.9,54.1,49.9,43.9,90,59,28,29.88,29.74,9,1,10,0.00
2013-4-13,86.5,68.9,52.3,52.7,48.0,37.4,85,53,19,29.84,29.68,10,2,11,0.00
2013-4-14,80.1,64.3,49.6,51.4,44.7,34.0,85,53,22,29.85,29.72,10,2,10,0.00
2013-4-15,73.0,59.8,47.7,46.9,41.0,27.9,84,52,25,29.87,29.73,18,2,20,0.00
2013-4-16,68.2,52.8,39.9,39.9,36.0,30.0,81,55,28,30.01,29.87,15,2,16,0.00
2013-4-17,72.3,55.4,37.9,37.2,32.6,24.3,86,48,18,30.19,30.01,9,2,12,0.00
2013-4-18,78.3,60.2,40.5,40.6,33.3,25.3,76,42,16,30.27,30.15,9,2,11,0.00
2013-4-19,84.2,66.1,45.9,45.7,37.5,30.7,75,39,16,30.22,29.99,7,1,10,0.00
2013-4-20,86.7,68.3,52.5,52.0,44.3,34.9,73,45,18,30.04,29.90,8,1,10,0.00
2013-4-21,90.0,70.3,52.2,54.0,46.8,41.4,79,49,19,30.00,29.87,8,1,10,0.00
2013-4-22,91.8,72.6,52.9,51.3,47.5,39.2,81,46,17,29.93,29.75,7,1,9,0.00
2013-4-23,88.5,69.7,53.1,53.4,46.2,37.8,82,49,18,29.90,29.76,9,1,10,0.00
2013-4-24,91.6,71.2,53.2,51.4,45.4,34.9,76,45,14,29.83,29.67,9,2,14,0.00
2013-4-25,81.0,66.1,54.3,53.2,50.4,47.5,78,59,35,30.04,29.83,9,2,12,0.00
2013-4-26,87.1,68.5,52.2,55.6,50.5,46.2,90,58,26,30.16,30.04,7,1,10,0.00
2013-4-27,91.8,72.3,53.2,54.5,50.8,47.5,84,52,25,30.16,29.97,8,1,10,0.00
2013-4-28,94.5,74.9,57.6,57.9,51.7,42.6,81,49,19,29.99,29.80,7,1,11,0.00
2013-4-29,95.0,75.9,57.9,56.1,51.4,47.1,71,46,22,29.85,29.66,8,1,10,0.00
2013-4-30,90.0,73.4,56.8,55.2,49.6,38.1,82,47,19,29.77,29.67,8,2,11,0.00
2013-5-1,89.6,71.7,54.1,47.8,39.8,31.1,71,36,14,30.04,29.77,11,2,11,0.00
2013-5-2,92.1,73.7,54.3,54.0,42.4,22.6,73,38,9,30.14,30.01,9,2,11,0.00
2013-5-3,94.5,75.3,56.7,55.0,46.0,40.1,63,39,16,30.02,29.73,8,1,12,0.00
2013-5-4,95.0,74.6,55.8,51.8,43.8,33.3,76,39,15,29.74,29.49,11,2,14,0.00
2013-5-5,81.3,67.2,54.7,49.5,45.1,33.3,70,47,27,29.82,29.60,11,2,16,0.00
2013-5-6,77.0,67.5,59.5,49.5,47.4,43.7,67,50,34,29.93,29.80,10,2,13,0.00
2013-5-7,68.2,60.2,54.0,55.0,52.7,45.9,95,77,55,30.02,29.93,9,1,11,0.47
2013-5-8,79.2,64.9,54.0,57.6,54.2,51.6,93,71,41,30.09,29.98,9,1,12,0.01
2013-5-9,84.0,68.4,54.1,59.0,54.6,50.7,92,65,34,30.08,29.99,7,1,9,0.00
2013-5-10,89.4,74.5,58.5,61.2,57.2,54.7,89,58,33,30.11,29.99,6,1,9,0.00
2013-5-11,97.5,79.2,62.2,65.7,60.4,57.0,86,57,29,30.08,29.93,8,1,9,0.00
2013-5-12,100.2,82.0,64.0,63.5,59.2,54.1,81,50,23,30.07,29.87,9,2,11,0.00
2013-5-13,100.8,80.6,61.5,64.9,57.0,51.3,82,49,21,30.01,29.81,8,2,10,0.00
2013-5-14,93.7,77.8,61.7,57.0,52.0,33.4,79,45,13,29.90,29.80,9,2,12,0.00
2013-5-15,92.1,75.2,58.6,57.0,51.0,42.8,83,47,20,29.96,29.83,8,2,10,0.00
2013-5-16,76.6,67.1,53.4,52.0,49.9,47.1,84,55,39,29.97,29.87,9,2,9,0.00
2013-5-17,82.9,68.9,54.0,50.9,45.5,38.8,76,46,26,29.97,29.89,8,2,10,0.00
2013-5-18,85.3,67.8,50.2,46.2,42.0,31.6,79,44,17,30.08,29.96,9,1,10,0.00
2013-5-19,88.2,70.7,51.8,54.0,47.3,43.3,81,47,23,30.04,29.88,8,1,9,0.00
2013-5-20,93.4,74.7,56.1,55.0,47.1,40.8,73,42,18,29.98,29.84,9,1,10,0.00
2013-5-21,93.7,76.0,58.5,52.9,45.1,23.4,74,39,9,29.88,29.73,10,2,13,0.00
2013-5-22,77.4,63.4,52.2,42.8,37.1,24.3,69,41,16,29.92,29.79,11,2,13,0.00
2013-5-23,79.2,59.7,43.9,40.6,36.2,30.4,75,45,20,29.92,29.85,9,2,13,0.00
2013-5-24,84.4,71.8,60.3,46.8,35.9,-99.9,61,31,20,29.90,29.84,8,-40,11,0.00
2013-5-25,86.4,68.1,49.5,45.9,41.7,34.5,80,44,18,29.96,29.87,8,2,9,0.00
2013-5-26,84.0,68.3,52.3,50.4,46.7,43.2,76,48,25,30.04,29.93,10,2,12,0.00
2013-5-27,79.9,67.5,54.3,51.8,48.5,43.3,77,53,30,30.05,29.92,9,2,11,0.00
2013-5-28,84.4,68.5,55.2,57.9,52.9,48.6,89,61,30,29.96,29.79,11,2,11,0.00
2013-5-29,87.3,71.6,55.2,57.9,51.9,41.5,86,53,31,29.89,29.74,11,2,15,0.00
2013-5-30,90.3,72.5,54.7,55.4,49.0,40.8,82,47,23,29.91,29.80,8,2,10,0.00
2013-5-31,93.9,74.1,53.8,53.8,48.7,45.3,80,45,22,29.95,29.82,7,2,10,0.00
2013-6-1,100.0,79.9,60.6,60.4,52.6,46.2,71,43,19,29.87,29.68,7,1,11,0.00
2013-6-2,103.3,84.4,66.7,58.6,53.1,43.0,65,38,14,29.71,29.53,7,2,9,0.00
2013-6-3,96.1,80.1,64.8,60.6,54.3,51.1,64,44,24,29.72,29.61,8,2,9,0.00
2013-6-4,94.8,78.5,63.1,58.8,54.9,51.6,71,47,26,29.83,29.71,8,2,9,0.00
2013-6-5,95.7,79.4,63.3,61.5,58.7,55.9,82,53,28,29.91,29.77,8,1,9,0.00
2013-6-6,98.2,81.6,64.2,63.1,59.8,56.1,79,51,28,29.85,29.71,9,1,10,0.00
2013-6-7,102.9,84.6,67.3,66.9,63.6,60.3,84,53,27,29.78,29.63,8,1,10,0.00
2013-6-8,108.0,90.5,73.8,70.2,64.3,57.0,71,45,23,29.67,29.55,9,1,9,0.00
2013-6-9,101.7,86.0,72.0,62.8,56.8,50.9,53,39,22,29.73,29.62,7,2,9,0.00
2013-6-10,86.4,74.3,61.0,58.8,53.8,43.9,79,52,24,29.88,29.70,11,2,12,0.00
2013-6-11,96.3,77.2,60.3,60.8,56.9,53.8,85,54,25,29.92,29.76,8,1,8,0.00
2013-6-12,98.4,80.0,62.2,62.6,56.0,42.1,89,50,18,29.88,29.78,7,2,10,0.00
2013-6-13,90.7,75.2,57.7,49.5,42.1,32.4,64,34,14,30.01,29.86,8,2,10,0.00
2013-6-14,92.1,71.3,55.9,50.4,47.2,37.9,71,46,17,29.90,29.73,8,1,8,0.00
2013-6-15,97.0,78.0,58.3,54.5,45.3,31.5,75,38,11,29.85,29.76,9,2,11,0.00
2013-6-16,95.2,77.0,57.6,54.5,48.7,38.1,78,42,16,29.99,29.85,9,2,11,0.00
2013-6-17,94.8,76.3,57.6,52.9,48.7,43.9,73,41,19,30.01,29.86,7,2,9,0.00
2013-6-18,88.2,73.4,57.6,54.3,49.5,42.8,79,47,23,29.96,29.80,9,2,11,0.00
2013-6-19,84.2,68.9,54.5,49.8,46.1,41.0,74,47,24,29.99,29.86,9,2,10,0.00
2013-6-20,89.4,71.2,51.6,50.4,45.5,39.0,80,44,19,29.93,29.82,7,2,10,0.00
2013-6-21,92.7,74.3,54.3,51.6,47.2,38.5,77,42,17,29.91,29.79,8,2,9,0.00
2013-6-22,96.3,76.7,56.5,55.0,49.4,38.5,77,43,16,29.88,29.72,8,2,9,0.00
2013-6-23,89.1,75.0,60.4,55.4,51.6,44.4,69,46,28,29.79,29.71,8,2,10,0.00
2013-6-24,85.8,73.5,60.6,61.9,58.8,54.7,84,62,41,29.85,29.75,8,1,9,0.00
2013-6-25,95.0,79.1,63.1,63.5,60.7,58.1,89,57,30,29.95,29.83,10,2,10,0.00
2013-6-26,98.1,82.1,67.3,67.3,64.4,61.3,88,58,32,29.98,29.86,8,2,9,0.00
2013-6-27,100.9,84.7,68.9,68.2,64.3,62.1,81,53,31,30.01,29.90,8,2,10,0.00
2013-6-28,105.6,87.8,70.5,66.7,64.5,57.6,83,50,22,29.95,29.79,10,2,11,0.00
2013-6-29,108.1,89.8,72.1,67.8,64.5,59.2,77,48,21,29.85,29.69,7,1,9,0.00
2013-6-30,109.4,90.4,74.1,68.7,65.5,58.1,76,48,22,29.76,29.63,7,1,9,0.00
2013-7-1,102.6,86.8,73.9,73.9,68.1,62.8,78,56,31,29.79,29.67,8,1,9,0.00
2013-7-2,108.1,90.4,75.6,71.4,62.1,51.4,75,43,16,29.84,29.74,8,1,8,0.00
2013-7-3,104.5,87.9,74.5,70.2,61.2,53.6,61,42,24,29.83,29.65,7,1,9,0.00
2013-7-4,107.1,91.9,75.6,71.6,66.9,60.6,77,47,24,29.70,29.57,9,1,12,0.00
2013-7-5,106.0,90.3,75.9,71.1,62.5,44.8,75,43,23,29.67,29.56,8,2,9,0.00
2013-7-6,100.8,83.0,65.8,61.9,54.4,35.6,75,41,13,29.72,29.61,8,1,9,0.00
2013-7-7,104.7,83.9,64.6,62.4,54.4,43.7,67,40,13,29.76,29.66,7,2,8,0.00
2013-7-8,105.3,84.8,63.9,64.2,54.0,45.9,67,39,15,29.87,29.75,7,1,10,0.00
2013-7-9,104.7,84.7,63.3,64.9,58.1,48.4,79,45,17,29.97,29.81,8,2,10,0.00
2013-7-10,97.3,83.8,68.9,67.5,62.0,56.8,77,50,29,29.89,29.76,7,1,9,0.00
2013-7-11,99.3,84.4,74.1,66.9,56.1,47.1,65,41,18,29.84,29.73,8,2,11,0.00
2013-7-12,99.3,81.0,62.4,58.3,52.0,41.9,70,41,16,29.87,29.74,9,2,10,0.00
2013-7-13,102.2,82.6,62.8,62.6,55.1,47.5,80,44,18,29.89,29.78,8,2,8,0.00
2013-7-14,103.5,83.1,64.0,62.2,53.2,34.9,74,41,11,29.92,29.76,8,2,9,0.00
2013-7-15,99.9,82.3,64.6,59.2,53.8,46.4,75,42,19,29.82,29.67,8,2,9,0.00
2013-7-16,96.3,78.9,60.8,57.9,52.8,43.0,72,44,18,29.89,29.74,10,2,10,0.00
2013-7-17,95.7,77.9,59.0,59.9,56.4,52.0,88,52,25,30.02,29.89,8,2,10,0.00
2013-7-18,99.7,80.3,61.9,60.6,56.5,48.4,86,50,20,29.98,29.81,9,1,11,0.00
2013-7-19,101.5,82.6,64.9,61.9,56.1,50.4,72,45,19,29.86,29.71,8,1,10,0.00
2013-7-20,103.8,85.0,68.2,65.5,58.5,50.2,73,45,18,29.76,29.62,9,1,11,0.00
2013-7-21,105.3,88.6,72.9,65.5,57.7,49.3,62,38,19,29.77,29.65,11,1,15,0.00
2013-7-22,95.4,82.4,75.7,73.4,65.0,56.5,77,57,30,29.86,29.71,9,1,10,0.01
2013-7-23,100.2,84.5,71.2,69.4,63.2,56.3,89,54,24,29.93,29.81,9,2,10,0.01
2013-7-24,99.9,84.1,67.5,64.8,57.6,47.1,78,44,19,29.91,29.78,10,2,10,0.00
2013-7-25,104.5,87.2,71.4,65.8,62.9,58.5,76,48,24,29.89,29.80,10,2,10,0.00
2013-7-26,99.7,84.8,71.6,68.4,63.9,57.7,82,52,31,29.99,29.86,11,2,11,0.00
2013-7-27,103.1,87.2,75.2,67.3,59.1,50.5,71,42,19,29.92,29.71,10,1,10,0.00
2013-7-28,103.1,84.9,67.8,62.4,58.4,45.5,79,46,15,29.78,29.66,10,2,10,0.00
2013-7-29,100.4,83.7,66.6,62.2,57.3,47.3,76,45,18,29.88,29.72,9,2,10,0.00
2013-7-30,97.3,81.0,64.6,62.4,58.1,49.8,85,50,22,30.00,29.88,9,1,11,0.00
2013-7-31,98.4,81.1,63.7,60.4,55.5,43.7,85,47,17,30.01,29.84,7,1,9,0.00
2013-8-1,95.9,78.0,60.1,55.8,48.9,39.7,80,41,15,29.98,29.82,9,2,10,0.00
2013-8-2,94.8,76.3,56.7,55.2,48.5,31.8,81,44,12,29.92,29.80,7,1,9,0.00
2013-8-3,97.0,78.2,58.5,56.8,50.8,39.6,73,44,14,29.90,29.79,9,1,9,0.00
2013-8-4,99.3,78.6,59.7,58.3,52.5,45.3,76,45,17,29.91,29.80,8,1,11,0.00
2013-8-5,97.9,78.2,61.0,58.5,55.9,50.9,84,51,22,29.93,29.80,9,1,9,0.00
2013-8-6,97.0,78.9,59.5,59.0,55.4,49.6,87,49,21,29.93,29.83,9,2,10,0.00
2013-8-7,90.3,75.5,60.1,59.0,55.2,47.5,86,53,24,30.02,29.90,9,2,10,0.00
2013-8-8,91.4,74.2,57.6,59.7,55.8,51.1,90,57,27,29.97,29.80,9,1,10,0.00
2013-8-9,93.4,75.1,57.6,59.2,54.6,47.7,88,54,21,29.89,29.80,10,2,11,0.00
2013-8-10,93.9,76.3,58.1,59.5,54.6,47.7,89,52,22,29.97,29.86,8,2,9,0.00
2013-8-11,95.4,77.4,59.5,61.2,56.4,50.5,88,53,23,29.96,29.81,9,1,9,0.00
2013-8-12,98.2,78.9,60.4,59.9,55.7,49.5,85,50,21,29.93,29.81,8,1,10,0.00
2013-8-13,99.9,79.4,61.0,59.5,55.9,49.6,83,50,20,29.93,29.80,8,1,9,0.00
2013-8-14,71.2,65.8,61.7,59.0,57.5,55.8,83,75,64,29.86,29.84,2,0,2,0.00
2013-8-19,94.3,88.4,83.1,57.7,56.2,52.5,41,34,25,29.75,29.72,12,4,18,0.01
2013-8-20,103.3,86.9,74.5,64.4,56.5,46.0,52,37,21,29.80,29.68,11,2,11,0.00
2013-8-21,100.9,82.1,67.6,60.4,53.6,47.7,60,40,18,29.85,29.72,7,1,9,0.00
2013-8-22,100.0,80.7,62.1,62.1,55.9,44.1,85,48,16,29.87,29.72,9,1,9,0.00
2013-8-23,96.6,78.1,61.5,59.4,56.4,50.7,86,52,22,29.84,29.68,9,1,10,0.00
2013-8-24,98.1,78.2,60.1,59.0,54.6,49.3,83,50,20,29.82,29.70,7,1,9,0.00
2013-8-25,94.8,76.9,61.2,61.7,56.6,48.9,85,54,22,29.90,29.77,7,1,9,0.00
2013-8-26,94.6,77.5,62.8,61.2,58.1,54.7,81,54,27,29.94,29.76,7,1,10,0.00
2013-8-27,98.6,80.2,62.8,62.6,58.7,55.4,83,52,26,29.84,29.68,8,1,8,0.00
2013-8-28,99.0,81.6,65.8,65.7,59.8,56.3,80,51,27,29.85,29.74,8,1,9,0.00
2013-8-29,99.0,80.8,64.0,64.8,61.0,57.6,85,55,28,29.96,29.84,8,2,10,0.00
2013-8-30,98.4,80.6,64.2,65.1,60.5,55.8,83,54,25,29.98,29.82,7,1,9,0.00
2013-8-31,96.4,81.7,69.3,66.7,61.5,54.5,76,53,25,29.91,29.78,6,1,7,0.00
2013-9-1,96.3,82.1,68.4,66.2,62.6,57.6,85,55,29,29.87,29.76,7,1,9,0.00
2013-9-2,98.2,83.0,70.2,65.8,62.4,58.1,74,52,32,29.89,29.75,7,1,10,0.00
2013-9-3,93.4,80.8,72.3,65.5,62.1,58.5,77,54,39,29.93,29.80,8,1,9,0.00
2013-9-4,96.6,80.2,65.8,64.0,60.0,56.1,75,52,33,29.95,29.81,7,1,8,0.00
2013-9-5,95.7,79.4,64.9,61.3,58.3,54.9,76,51,31,29.93,29.81,7,1,9,0.00
2013-9-6,95.2,77.5,61.3,61.9,57.7,53.4,81,53,31,29.93,29.76,7,1,9,0.00
2013-9-7,102.0,82.1,64.8,65.7,59.9,53.6,79,51,21,29.85,29.71,7,1,8,0.00
2013-9-8,102.0,80.3,64.8,63.3,56.7,48.2,74,48,19,29.80,29.66,10,1,11,0.00
2013-9-9,98.2,80.5,65.8,65.1,58.4,51.6,73,50,24,29.74,29.61,7,1,11,0.00
2013-9-10,99.5,81.5,64.8,61.9,56.0,46.6,76,47,17,29.78,29.66,6,1,8,0.00
2013-9-11,90.0,75.2,61.9,60.3,56.0,51.6,77,53,30,29.93,29.78,7,1,8,0.00
2013-9-12,91.4,74.7,59.5,62.1,58.6,54.9,91,61,31,29.93,29.79,7,1,9,0.00
2013-9-13,95.5,78.3,63.9,62.1,59.0,53.8,82,56,25,29.83,29.65,7,1,11,0.00
2013-9-14,97.9,80.8,66.0,62.1,60.0,57.6,78,53,27,29.72,29.60,8,1,10,0.00
2013-9-15,97.0,78.4,63.0,63.1,58.2,51.6,86,54,26,29.76,29.66,7,1,8,0.00
2013-9-16,93.6,74.8,59.7,62.2,57.6,52.9,85,58,31,29.83,29.68,9,1,11,0.00
2013-9-17,89.1,73.7,61.3,60.4,53.4,46.0,83,53,26,29.80,29.70,6,2,11,0.00
2013-9-18,85.8,68.7,53.1,55.0,52.3,48.9,87,59,30,29.87,29.75,9,1,10,0.00
2013-9-19,91.6,73.0,56.7,57.4,52.3,47.8,82,53,25,29.84,29.68,7,1,8,0.00
2013-9-20,94.8,76.6,60.1,56.3,51.4,46.9,75,45,20,29.77,29.67,8,1,11,0.00
2013-9-21,83.1,69.0,56.8,59.7,54.2,46.9,86,62,34,29.85,29.70,18,3,23,0.00
2013-9-22,78.3,63.8,50.4,53.8,50.0,45.9,92,64,34,29.95,29.85,8,1,10,0.00
2013-9-23,84.2,66.6,51.1,55.2,51.3,47.3,87,61,33,30.00,29.87,7,1,10,0.00
2013-9-24,90.0,72.3,56.1,56.3,52.3,48.6,81,53,26,29.95,29.77,8,1,10,0.00
2013-9-25,76.8,64.5,55.2,51.4,46.7,41.5,77,54,30,29.89,29.71,10,2,15,0.00
2013-9-26,74.7,59.9,46.8,47.1,43.4,39.0,87,58,29,29.94,29.74,10,1,10,0.00
2013-9-27,79.5,62.5,47.1,47.1,41.5,37.4,79,51,23,30.06,29.93,10,1,11,0.00
2013-9-28,87.1,66.0,47.5,50.2,42.9,38.8,77,48,19,30.09,29.95,7,1,8,0.00
2013-9-29,89.2,69.4,51.1,50.4,42.6,35.1,72,42,15,30.08,29.96,7,1,7,0.00
2013-9-30,84.6,66.0,49.8,56.5,51.1,44.8,89,62,30,30.06,29.88,10,1,10,0.00
2013-10-1,84.7,68.0,53.2,60.1,54.3,49.6,91,65,37,29.96,29.83,8,1,8,0.00
2013-10-2,84.0,66.3,51.3,53.4,49.4,45.3,88,58,29,29.96,29.83,7,1,8,0.00
2013-10-3,75.2,59.8,46.2,46.4,43.6,39.4,87,58,34,29.98,29.87,7,1,9,0.00
2013-10-4,80.8,62.6,47.7,44.6,41.4,35.8,80,51,22,30.09,29.93,8,1,9,0.00
2013-10-5,57.9,53.2,50.5,43.3,42.5,41.5,75,67,56,30.12,30.09,2,0,4,0.00
2013-11-5,71.1,56.6,44.6,39.7,36.0,33.3,67,49,25,30.23,30.12,5,0,6,0.00
2013-11-6,75.7,56.0,38.8,43.7,36.3,32.5,81,51,23,30.27,30.16,6,1,7,0.00
2013-11-7,78.6,58.3,44.2,43.0,38.1,32.0,75,51,20,30.17,30.03,7,1,7,0.00
2013-11-8,75.7,56.5,39.4,43.3,38.3,33.6,82,54,24,30.07,29.93,6,1,10,0.00
2013-11-9,78.6,58.4,43.5,44.8,39.3,34.3,72,52,24,30.03,29.94,6,1,6,0.00
2013-11-10,80.1,58.9,40.8,42.6,37.8,31.6,77,49,21,30.10,29.99,5,1,7,0.00
2013-11-11,75.6,57.0,41.2,46.6,40.2,32.4,80,56,29,30.17,30.04,7,1,7,0.00
2013-11-12,64.9,56.8,48.9,50.0,45.4,39.7,88,67,47,30.27,30.12,7,1,8,0.00
2013-11-13,72.9,56.7,44.4,47.3,44.8,40.5,92,67,38,30.24,30.08,5,1,7,0.00
2013-11-14,76.5,59.9,46.0,47.1,44.1,40.3,82,58,31,30.09,29.80,5,1,7,0.00
2013-11-15,67.1,54.2,43.3,46.2,43.2,39.6,91,68,45,29.80,29.69,10,1,13,0.00
2013-11-16,68.2,53.4,41.5,44.4,42.0,38.1,90,68,40,29.91,29.75,10,1,10,0.00
2013-11-17,69.4,52.6,41.0,43.5,40.9,36.7,88,67,38,30.09,29.91,6,1,7,0.00
2013-11-18,68.2,54.1,42.4,44.6,41.9,37.6,85,65,40,30.14,30.01,7,1,7,0.00
2013-11-19,64.6,52.1,40.5,47.5,43.6,37.4,91,74,52,30.10,29.97,8,1,10,0.00
2013-11-20,68.9,57.6,50.4,53.8,49.7,44.8,96,77,48,29.99,29.80,7,1,9,0.57
2013-11-21,58.5,54.3,51.4,54.5,52.2,49.6,97,93,84,29.95,29.84,8,1,9,0.10
2013-11-22,56.8,51.2,46.6,50.9,48.5,45.1,97,91,77,30.01,29.93,5,1,7,0.01
2013-11-23,65.5,52.0,44.6,48.0,44.8,42.6,96,79,45,30.10,29.98,8,1,8,0.00
2013-11-24,67.5,53.3,44.4,48.7,44.2,41.2,90,73,43,30.24,30.09,7,1,7,0.00
2013-11-25,66.7,50.9,39.4,47.7,43.7,37.8,96,78,48,30.33,30.24,7,0,7,0.00
2013-11-26,65.7,52.0,41.5,49.1,45.2,39.2,95,79,52,30.27,30.07,5,1,6,0.01
2013-11-27,73.0,56.1,43.9,48.9,43.9,40.1,95,68,33,30.07,29.81,7,1,8,0.00
2013-11-28,69.3,55.1,44.8,46.6,43.1,39.6,87,66,40,30.05,29.85,5,1,6,0.00
2013-11-29,67.5,51.5,39.9,47.7,43.4,37.0,93,75,47,30.22,30.05,5,1,7,0.00
2013-11-30,70.0,53.3,40.5,46.4,42.2,37.0,91,69,38,30.27,30.16,6,1,8,0.00
2013-12-1,68.4,52.8,41.5,46.6,42.8,37.2,87,71,43,30.36,30.22,7,1,7,0.00
2013-12-2,68.7,52.6,40.1,48.2,43.4,36.9,93,73,45,30.24,29.93,8,1,10,0.00
2013-12-3,50.4,45.7,36.3,49.3,42.2,32.9,96,88,78,29.94,29.76,10,1,12,0.04
2013-12-4,51.4,38.4,29.7,32.9,29.6,25.7,93,74,38,30.07,29.88,8,1,9,0.01
2013-12-10,53.4,43.1,32.7,32.7,29.4,26.4,83,60,37,30.36,30.22,6,1,6,0.18
2013-12-11,58.8,42.0,29.3,33.6,30.9,26.4,91,67,34,30.27,30.18,7,1,7,0.00
2013-12-12,61.2,42.4,28.8,35.4,31.4,25.7,90,68,35,30.27,30.16,5,0,5,0.00
2013-12-13,59.4,42.8,29.3,36.9,32.4,26.2,92,69,41,30.35,30.19,6,1,7,0.00
2013-12-14,62.1,44.9,30.0,37.8,33.6,26.8,92,67,39,30.42,30.32,5,1,7,0.00
2013-12-15,61.2,44.4,30.7,38.7,34.7,28.0,92,71,42,30.38,30.24,5,1,6,0.00
2013-12-16,64.0,46.7,34.2,40.8,36.8,31.1,91,71,41,30.28,30.15,4,0,5,0.00
2013-12-17,66.2,49.7,36.3,45.0,39.7,32.9,92,70,44,30.21,30.03,6,1,6,0.00
2013-12-18,65.1,52.7,46.8,46.6,43.7,41.5,87,72,47,30.03,29.69,10,1,11,0.00
2013-12-19,53.2,48.6,41.5,45.5,43.1,38.8,90,81,73,29.89,29.68,13,2,13,0.00
2013-12-20,55.9,45.2,37.4,39.7,34.3,29.5,94,69,38,30.03,29.89,9,1,12,0.00
2013-12-21,60.3,46.1,36.5,37.9,34.3,29.8,83,65,40,30.10,29.98,7,1,8,0.00
2013-12-22,64.2,47.8,34.0,39.0,35.4,29.8,90,65,35,30.32,30.09,5,1,5,0.00
2013-12-23,66.7,48.5,33.1,39.6,36.1,29.8,90,65,36,30.40,30.30,4,0,5,0.00
2013-12-24,65.1,47.4,34.0,41.9,37.4,30.4,90,71,41,30.34,30.22,6,1,7,0.00
2013-12-25,69.1,51.0,34.9,42.8,38.2,31.1,88,64,36,30.30,30.20,6,1,6,0.00
2013-12-26,66.7,47.7,33.4,42.3,37.0,29.8,89,69,38,30.30,30.18,5,1,6,0.00
2013-12-27,68.4,48.6,32.5,41.9,36.3,28.2,89,66,32,30.27,30.11,4,0,5,0.00
2013-12-28,61.9,46.7,32.4,43.3,37.8,29.3,93,73,46,30.14,30.03,7,1,8,0.00
2013-12-29,66.9,48.9,36.0,40.5,35.7,31.5,89,63,32,30.21,30.11,5,1,5,0.00
2013-12-30,72.7,49.8,31.8,37.9,32.3,26.2,85,56,20,30.25,30.16,5,0,5,0.00
2013-12-31,65.8,47.9,32.5,38.1,32.7,26.8,81,58,33,30.26,30.13,6,1,7,0.00
2014-1-1,66.6,48.3,33.3,38.3,33.9,28.4,86,60,32,30.23,30.11,5,1,7,0.00
2014-1-2,66.9,49.3,36.0,39.6,35.2,29.8,83,61,35,30.19,30.05,7,1,7,0.00